Location: Piacenza
(45.0170°N, 9.6670°E)
Time: 06:07:15
(UTC+01:00)

ISS - Visible Passes

Search period start: 20 January 2019 00:00
Search period end: 30 January 2019 00:00
Orbit: 404 x 410 km, 51.6° (Epoch: 20 January)

Date Brightness Start Highest point End Pass type
(mag) Time Alt. Az. Time Alt. Az. Time Alt. Az.
21 Jan -1.5 18:44:57 10° SSE 18:46:04 13° SE 18:46:04 13° SE visible
22 Jan -1.9 19:28:15 10° SW 19:29:55 26° SSW 19:29:55 26° SSW visible
23 Jan -2.7 18:37:16 10° SSW 18:40:12 30° SE 18:40:56 27° ESE visible
23 Jan -0.3 20:13:26 10° W 20:13:40 12° W 20:13:40 12° W visible
24 Jan -1.9 17:46:41 10° S 17:48:59 18° SE 17:51:17 10° E visible
24 Jan -3.1 19:21:53 10° WSW 19:24:36 54° W 19:24:36 54° W visible
25 Jan -3.8 18:30:30 10° SW 18:33:47 69° SSE 18:35:27 26° ENE visible
25 Jan -0.6 20:07:31 10° W 20:08:10 14° WNW 20:08:10 14° WNW visible
26 Jan -2.9 19:15:49 10° W 19:18:57 41° NNW 19:18:57 41° NNW visible
27 Jan -3.5 18:24:12 10° WSW 18:27:28 59° NNW 18:29:41 19° NE visible
27 Jan -0.8 20:01:36 10° WNW 20:02:24 15° NW 20:02:24 15° NW visible
28 Jan -2.4 19:09:52 10° WNW 19:12:49 29° NNW 19:13:05 28° N visible
29 Jan -2.7 18:18:07 10° W 18:21:13 36° NNW 18:23:44 14° NE visible
29 Jan -1.0 19:55:32 10° NW 19:56:27 15° NW 19:56:27 15° NW visible
